Tracking 19832 objects as of 24-Aug-2019
HD Live streaming from Space Station
objects crossing your sky now

ANIK C1 R/B(PAM-D)

Track ANIK C1 R/B(PAM-D) now!


NORAD ID: 15644
Int'l Code: 1985-028D
Perigee: 302.5 km
Apogee: 30,339.5 km
Inclination: 22.9 °
Period: 529.9 minutes
Semi major axis: 21692 km
RCS: 2.9686 m2 (large)
Launch date: April 12, 1985
Source: United States (US)
Launch site: AIR FORCE EASTERN TEST RANGE (AFETR)

Note: This is a ROCKET BODY
aabbcc
Your satellite tracking list
Your tracking list is empty




NASA's NSSDC Master Catalog

Two Line Element Set (TLE):
1 15644U 85028D   19235.42634158 +.00000540 +00000-0 +31768-3 0  9993
2 15644 022.8912 246.6030 6923512 063.7428 350.0234 02.71739326318217
Source of the keplerian elements: AFSPC